Date,TemperatureHighF,TemperatureAvgF,TemperatureLowF,DewpointHighF,DewpointAvgF,DewpointLowF,HumidityHigh,HumidityAvg,HumidityLow,PressureMaxIn,PressureMinIn,WindSpeedMaxMPH,WindSpeedAvgMPH,GustSpeedMaxMPH,PrecipitationSumIn
2013-1-1,35,29,18,28,22,11,82,75,67,30.18,30.04,9,1,10,0.02
2013-1-2,31,20,11,15,10,4,75,64,49,30.26,30.15,7,0,7,0.02
2013-1-3,34,25,16,24,16,6,75,67,59,30.30,30.18,10,2,10,0.00
2013-1-4,31,26,20,21,17,13,73,67,58,30.34,30.29,16,3,16,0.00
2013-1-5,42,31,21,29,23,15,79,72,57,30.32,30.11,19,4,19,0.00
2013-1-6,36,32,28,29,25,20,77,75,70,30.36,30.01,14,4,16,0.00
2013-1-7,40,30,20,28,22,15,79,71,60,30.43,30.21,22,3,22,0.00
2013-1-8,46,36,26,31,26,19,77,67,54,30.27,30.19,14,2,15,0.00
2013-1-9,50,42,33,39,33,26,81,71,61,30.50,30.16,10,2,14,0.06
2013-1-10,45,37,29,40,30,23,85,76,61,30.51,30.03,8,2,11,0.12
2013-1-11,59,53,45,53,47,40,89,80,70,30.03,29.83,19,5,19,0.94
2013-1-12,65,56,48,55,49,43,88,79,66,29.99,29.73,11,3,11,1.49
2013-1-13,56,38,23,52,33,17,88,83,77,30.21,29.68,19,2,34,1.24
2013-1-14,30,23,19,20,16,13,79,74,65,30.44,30.21,9,1,9,0.00
2013-1-15,31,26,19,20,17,13,80,71,61,30.38,30.08,7,0,7,0.00
2013-1-16,39,31,25,27,21,18,78,68,55,30.09,29.96,13,2,13,0.00
2013-1-17,45,34,24,33,23,15,74,65,57,30.41,30.08,19,3,23,0.00
2013-1-18,40,32,21,24,19,14,75,60,44,30.48,30.14,22,7,24,0.00
2013-1-19,52,43,38,33,27,23,60,54,47,30.14,29.90,26,11,28,0.00
2013-1-20,45,31,23,34,17,11,67,56,47,30.27,29.92,5,2,5,0.00
2013-1-21,24,18,10,12,7,-2,68,60,55,30.26,30.14,4,1,4,0.00
2013-1-22,20,14,6,5,0,-4,64,55,49,30.39,30.26,8,1,9,0.00
2013-1-23,26,20,14,11,6,0,58,53,47,30.34,30.10,16,2,16,0.00
2013-1-24,25,21,15,13,7,3,67,55,44,30.59,30.17,19,4,19,0.00
2013-1-25,31,25,20,19,13,5,69,61,50,30.38,30.03,11,2,12,0.02
2013-1-26,38,26,19,22,15,11,71,63,51,30.42,30.11,10,1,10,0.02
2013-1-27,38,29,21,33,21,8,84,70,34,30.40,30.06,18,3,18,0.25
2013-1-28,53,48,38,50,44,33,89,86,82,30.09,29.98,22,6,22,0.12
2013-1-29,64,58,53,57,53,50,89,83,76,30.00,29.44,27,9,27,0.00
2013-1-30,64,47,29,57,41,22,87,81,74,29.64,29.29,20,6,28,0.92
2013-1-31,31,24,12,22,15,3,75,70,65,30.12,29.64,21,6,33,0.00
2013-2-1,23,14,7,10,4,-2,69,63,55,30.40,30.12,19,4,23,0.00
2013-2-2,31,25,18,22,17,8,76,72,64,30.26,29.98,21,4,21,0.00
2013-2-3,27,21,14,19,13,6,73,70,68,30.09,29.96,13,2,13,0.00
2013-2-4,39,30,22,30,21,13,72,69,61,30.09,29.80,21,4,21,0.02
2013-2-5,37,32,25,30,24,18,76,72,65,30.04,29.83,17,3,17,0.00
2013-2-6,43,34,30,29,24,21,76,67,53,30.26,30.04,14,3,14,0.00
2013-2-7,55,43,31,39,32,23,79,64,47,30.19,29.81,17,2,17,0.12
2013-2-8,44,35,31,37,28,22,80,75,66,30.34,29.83,21,7,21,0.00
2013-2-9,43,33,23,28,22,16,78,64,52,30.40,30.16,17,2,17,0.00
2013-2-10,50,42,33,46,33,21,84,70,60,30.16,29.71,22,6,27,0.08
2013-2-11,51,40,32,46,30,24,84,67,60,30.05,29.70,31,6,37,0.00
2013-2-12,48,36,28,32,26,21,76,67,53,30.13,29.94,14,2,14,0.00
2013-2-13,44,35,28,29,25,22,78,67,54,29.94,29.78,13,2,13,0.00
2013-2-14,50,41,34,37,31,26,81,70,57,30.01,29.81,19,6,19,0.00
2013-2-15,40,33,25,31,25,16,76,70,61,30.17,29.98,20,2,20,0.00
2013-2-16,30,25,22,17,16,14,73,68,56,30.14,30.09,18,3,18,0.00
2013-2-17,37,25,12,18,10,4,70,55,40,30.22,30.12,2,0,2,0.00
2013-2-18,58,42,27,41,28,11,79,57,44,30.13,29.60,22,4,30,0.08
2013-2-19,46,28,23,40,19,11,81,69,61,30.13,29.58,21,6,21,0.12
2013-2-20,33,24,14,16,11,4,65,59,47,30.32,30.13,18,4,18,0.00
2013-2-21,32,26,19,23,17,9,81,68,58,30.34,30.01,15,5,15,0.00
2013-2-22,37,34,29,32,29,24,84,81,76,30.01,29.85,11,2,12,0.16
2013-2-23,43,32,25,29,22,18,76,67,55,30.01,29.93,12,2,12,0.08
2013-2-24,47,34,23,30,23,16,76,65,49,30.14,29.98,13,1,13,0.00
2013-2-25,46,36,25,29,24,18,77,64,49,30.17,29.88,15,4,15,0.00
2013-2-26,42,37,32,38,31,25,86,80,67,29.89,29.40,21,4,22,0.94
2013-2-27,42,36,32,37,30,27,85,82,78,29.71,29.49,15,3,16,0.02
2013-2-28,41,36,32,34,30,28,83,80,73,30.00,29.69,15,3,22,0.04
2013-3-1,36,33,31,30,27,23,80,77,73,30.08,29.96,12,3,12,0.00
2013-3-2,34,30,26,23,21,18,74,68,60,30.11,30.06,15,5,15,0.00
2013-3-3,43,32,25,26,20,16,74,62,51,30.12,30.06,13,4,19,0.00
2013-3-4,44,33,20,26,21,13,76,63,44,30.13,29.97,14,3,14,0.00
2013-3-5,37,35,30,32,29,25,82,76,69,29.98,29.67,11,3,11,0.12
2013-3-6,37,32,28,29,26,23,82,78,72,30.27,29.77,0,0,0,0.02
2013-3-7,47,36,30,34,26,23,80,70,55,30.40,30.26,7,0,7,0.25
2013-3-8,49,36,25,32,24,19,77,63,45,30.48,30.37,10,1,10,0.06
2013-3-9,54,45,32,35,30,22,71,58,46,30.36,29.97,18,4,18,0.00
2013-3-10,68,58,51,44,38,33,54,47,34,29.97,29.76,21,8,26,0.00
2013-3-11,59,47,34,46,39,28,81,75,51,29.88,29.63,26,6,26,0.12
2013-3-12,45,37,32,31,27,24,80,68,52,30.04,29.88,20,4,20,0.00
2013-3-13,39,30,27,27,22,19,76,71,60,30.23,30.03,15,3,15,0.02
2013-3-14,48,36,24,28,22,16,74,59,41,30.34,30.16,13,2,13,0.00
2013-3-15,55,43,31,39,33,24,78,66,53,30.16,29.77,10,2,10,0.00
2013-3-16,55,44,36,44,36,28,79,73,66,30.06,29.62,17,4,18,0.02
2013-3-17,39,34,30,28,25,21,75,68,60,30.17,29.97,17,7,17,0.00
2013-3-18,44,36,32,39,32,26,85,82,73,29.97,29.61,12,2,13,0.28
2013-3-19,40,34,26,32,20,17,79,57,43,30.11,29.84,22,5,22,0.00
2013-3-20,40,31,24,22,15,9,65,52,43,30.11,30.02,20,4,20,0.00
2013-3-21,44,31,19,20,14,9,65,51,38,30.05,29.97,12,2,13,0.00
2013-3-22,52,37,22,26,18,12,68,49,34,30.07,30.00,9,1,9,0.00
2013-3-23,56,41,33,29,22,18,57,48,34,30.08,29.93,12,2,12,0.00
2013-3-24,36,32,29,29,25,21,84,75,55,29.93,29.47,19,8,20,0.04
2013-3-25,43,34,29,32,27,24,83,75,64,30.01,29.52,20,8,20,0.16
2013-3-26,54,38,31,36,27,24,78,65,47,30.26,30.01,16,5,16,0.12
2013-3-27,56,39,28,34,25,20,76,58,42,30.33,30.25,12,2,16,0.00
2013-3-28,61,42,29,35,26,20,70,54,35,30.37,30.30,11,1,11,0.00
2013-3-29,62,45,30,38,29,22,74,56,38,30.33,30.22,9,1,9,0.00
2013-3-30,67,51,32,41,32,24,74,52,35,30.24,29.94,15,2,15,0.00
2013-3-31,62,52,47,45,39,33,78,62,46,29.94,29.78,16,2,16,0.02
2013-4-1,55,44,34,38,26,17,69,50,38,30.16,29.85,19,5,19,0.00
2013-4-2,58,41,27,29,20,15,63,45,31,30.29,30.16,16,2,16,0.00
2013-4-3,53,40,26,24,18,13,60,42,29,30.43,30.28,15,2,15,0.02
2013-4-4,61,47,34,30,22,17,52,39,27,30.34,30.01,10,1,10,0.00
2013-4-5,67,49,37,39,27,21,55,44,34,30.16,29.99,19,3,19,0.00
2013-4-6,68,55,40,40,32,24,54,43,35,30.16,29.84,22,6,30,0.00
2013-4-7,78,66,57,50,42,37,56,42,33,29.98,29.80,22,5,27,0.00
2013-4-8,73,64,56,57,51,37,72,62,47,30.00,29.85,22,6,22,0.00
2013-4-9,84,70,55,62,55,48,79,61,46,30.02,29.90,27,6,31,0.00
2013-4-10,83,70,56,66,59,50,86,69,55,29.94,29.79,23,7,25,0.45
2013-4-11,68,61,51,60,55,46,87,83,72,29.82,29.58,20,4,20,0.84
2013-4-12,51,43,38,46,34,30,83,69,59,29.93,29.62,17,4,17,0.04
2013-4-13,51,45,40,38,33,32,74,65,54,30.03,29.93,16,3,16,0.00
2013-4-14,72,57,40,48,40,31,74,56,39,30.03,29.83,20,4,20,0.00
2013-4-15,68,63,55,55,49,43,69,62,52,29.98,29.85,19,7,20,0.00
2013-4-16,63,54,49,52,47,44,85,78,67,30.21,29.90,13,3,14,1.30
2013-4-17,75,59,47,65,53,42,85,79,67,30.21,29.92,19,5,19,0.37
2013-4-18,80,66,59,65,59,54,88,78,59,29.92,29.60,24,5,30,2.67
2013-4-19,58,41,37,54,33,29,85,74,64,29.98,29.59,23,4,23,0.92
2013-4-20,58,45,33,38,30,24,79,58,44,30.41,29.98,13,2,13,0.00
2013-4-21,55,45,31,32,27,20,64,50,39,30.53,30.38,11,3,12,0.00
2013-4-22,76,58,36,41,34,26,66,43,28,30.38,30.12,13,2,13,0.00
2013-4-23,70,59,50,54,46,35,83,64,48,30.13,29.82,21,4,26,0.57
2013-4-24,58,46,40,53,37,31,83,73,58,30.23,29.81,19,5,22,0.88
2013-4-25,61,48,36,41,33,28,76,56,42,30.38,30.20,16,3,16,0.00
2013-4-26,69,54,35,42,35,28,75,51,36,30.45,30.33,12,2,12,0.00
2013-4-27,75,57,42,49,41,33,79,58,34,30.35,30.03,14,2,15,0.06
2013-4-28,61,57,54,56,52,48,85,83,79,30.02,29.86,7,0,7,0.33
2013-4-29,73,62,56,58,53,49,85,72,54,30.01,29.91,16,2,17,0.00
2013-4-30,85,70,52,61,55,46,80,59,43,30.06,29.94,16,4,16,0.00
2013-5-1,95,75,55,64,54,47,74,51,33,30.18,30.06,11,1,11,0.00
2013-5-2,92,74,62,60,54,51,68,51,35,30.20,30.08,13,2,14,0.00
2013-5-3,79,68,62,62,56,49,73,64,50,30.09,29.93,11,2,12,0.06
2013-5-4,73,64,57,51,47,41,74,54,44,30.04,29.96,12,2,14,0.02
2013-5-5,62,57,54,52,49,46,84,75,64,30.04,29.94,12,2,12,0.10
2013-5-6,69,60,51,56,51,44,81,71,61,30.00,29.92,14,2,14,0.02
2013-5-7,81,68,57,60,54,51,80,61,44,30.02,29.97,12,1,12,0.00
2013-5-8,94,73,58,65,56,51,78,57,35,30.06,29.98,9,0,9,0.00
2013-5-9,92,69,57,63,55,49,84,64,34,30.04,29.91,13,1,13,0.79
2013-5-10,71,63,51,62,56,44,86,79,68,29.95,29.84,14,2,14,0.04
2013-5-11,64,53,47,52,44,36,82,72,49,30.05,29.89,18,2,18,0.00
2013-5-12,69,53,39,44,34,30,75,52,35,30.14,30.04,20,2,20,0.00
2013-5-13,76,57,38,45,35,30,73,47,29,30.21,30.11,14,2,14,0.00
2013-5-14,84,70,52,60,48,34,61,47,33,30.12,29.84,22,6,22,0.00
2013-5-15,92,80,69,63,59,54,66,51,38,29.92,29.84,20,5,26,0.10
2013-5-16,88,76,67,68,62,58,78,63,47,30.01,29.87,15,2,15,0.02
2013-5-17,94,74,65,69,62,58,83,68,41,30.08,30.00,17,1,17,0.12
2013-5-18,79,71,63,67,62,58,86,74,59,30.10,29.99,8,1,8,0.00
2013-5-19,92,78,63,72,64,58,86,64,47,30.02,29.88,11,2,12,0.00
2013-5-20,91,79,70,72,67,63,85,67,51,29.98,29.86,21,7,21,0.00
2013-5-21,89,76,64,69,63,58,85,65,48,29.92,29.79,21,7,21,0.02
2013-5-22,80,70,65,66,61,56,83,72,60,29.83,29.75,20,4,20,0.24
2013-5-23,68,61,50,58,52,42,83,74,61,30.19,29.82,24,4,24,0.02
2013-5-24,74,58,44,51,42,37,79,58,39,30.38,30.19,14,3,14,0.00
2013-5-25,68,57,45,48,42,36,72,58,41,30.39,30.23,9,1,9,0.00
2013-5-26,74,61,52,53,47,40,74,60,44,30.32,30.18,8,1,8,0.16
2013-5-27,82,67,56,65,58,51,84,72,56,30.21,29.90,16,2,16,0.96
2013-5-28,83,73,62,68,63,58,85,72,57,29.99,29.91,24,6,24,0.00
2013-5-29,92,80,70,67,62,57,67,54,43,30.06,29.96,22,7,22,0.00
2013-5-30,96,81,70,71,65,60,73,59,43,30.09,29.96,22,7,28,0.00
2013-5-31,78,73,66,70,65,60,83,77,67,30.03,29.89,21,5,21,0.67
2013-6-1,78,71,64,67,63,60,87,77,66,29.93,29.80,19,3,21,0.77
2013-6-2,80,67,58,65,58,50,84,73,58,30.02,29.83,13,2,13,0.06
2013-6-3,70,60,47,54,47,40,78,63,48,30.12,30.02,10,1,10,0.00
2013-6-4,86,66,49,58,48,42,79,55,35,30.17,30.08,12,1,12,0.00
2013-6-5,91,72,55,62,54,45,72,53,36,30.11,29.90,6,0,6,0.00
2013-6-6,78,69,61,62,54,48,69,61,56,29.92,29.83,7,0,7,0.00
2013-6-7,83,69,60,64,57,52,78,65,49,29.92,29.86,8,1,8,0.00
2013-6-8,89,73,59,64,58,51,75,59,43,30.05,29.91,8,1,8,0.00
2013-6-9,92,76,65,67,61,57,81,62,39,30.06,29.86,16,2,16,0.43
2013-6-10,86,73,65,68,62,60,85,71,53,29.90,29.81,15,2,15,0.35
2013-6-11,95,78,63,70,63,57,81,63,42,30.01,29.90,12,1,12,0.00
2013-6-12,96,82,70,77,70,64,83,67,53,29.97,29.70,16,2,17,0.00
2013-6-13,83,74,62,70,62,51,84,67,50,30.02,29.65,21,5,22,1.08
2013-6-14,90,72,56,66,57,50,81,60,44,30.11,29.98,12,1,12,0.00
2013-6-15,92,75,61,68,60,54,79,61,41,30.14,29.97,17,2,18,0.00
2013-6-16,83,74,68,69,64,60,79,71,61,30.03,29.95,13,2,13,0.04
2013-6-17,98,80,67,76,65,61,85,63,41,30.00,29.91,8,1,13,0.00
2013-6-18,96,79,66,72,62,57,78,59,40,30.03,29.92,20,2,20,0.00
2013-6-19,90,75,61,64,58,54,78,57,41,30.14,30.03,8,1,10,0.00
2013-6-20,97,78,63,69,60,53,76,54,39,30.22,30.14,11,1,11,0.00
2013-6-21,101,80,64,70,62,55,75,57,33,30.23,30.06,13,2,13,0.00
2013-6-22,99,81,72,76,68,63,78,65,45,30.17,30.07,16,2,16,0.00
2013-6-23,97,77,67,74,66,60,84,70,43,30.14,30.07,20,2,21,1.43
2013-6-24,92,79,68,73,68,64,87,70,51,30.16,30.03,14,2,14,0.00
2013-6-25,94,81,70,77,69,63,83,68,52,30.06,29.90,15,4,15,0.12
2013-6-26,89,76,67,74,66,62,84,72,58,29.96,29.78,19,3,19,0.14
2013-6-27,96,81,69,75,68,63,87,67,48,29.84,29.75,14,2,14,0.02
2013-6-28,97,79,67,70,63,58,75,61,40,29.76,29.64,20,2,20,0.18
2013-6-29,80,69,63,67,61,58,84,76,62,29.72,29.62,8,0,8,0.33
2013-6-30,77,69,65,66,62,59,86,78,65,29.91,29.71,20,2,20,0.28
2013-7-1,80,69,65,66,60,58,79,74,61,29.99,29.89,14,4,14,0.02
2013-7-2,78,67,61,68,61,56,86,81,69,30.04,29.97,12,1,12,1.71
2013-7-3,84,72,61,70,62,57,88,72,57,30.13,30.03,19,3,19,0.00
2013-7-4,88,73,62,69,63,57,85,71,52,30.17,30.09,8,0,8,0.00
2013-7-5,85,76,66,70,65,60,85,69,56,30.16,30.08,13,1,13,0.00
2013-7-6,76,72,68,68,65,61,84,79,71,30.14,30.06,15,1,15,0.16
2013-7-7,91,76,64,73,65,60,87,71,53,30.13,30.05,13,2,13,0.02
2013-7-8,92,80,70,74,68,64,81,69,55,30.15,30.05,12,3,14,0.00
2013-7-9,92,82,76,76,71,68,77,69,59,30.09,29.98,15,2,15,0.00
2013-7-10,98,80,71,79,70,62,82,73,55,30.01,29.87,17,2,20,0.06
2013-7-11,86,73,62,65,57,54,75,60,42,30.08,30.00,15,1,15,0.00
2013-7-12,91,73,59,66,57,51,77,58,36,30.15,30.08,7,0,7,0.00
2013-7-13,93,76,62,68,61,55,80,61,44,30.17,30.10,12,1,12,0.00
2013-7-14,103,84,67,75,67,60,80,60,39,30.23,30.16,6,0,6,0.00
2013-7-15,103,85,73,76,70,66,82,62,41,30.32,30.22,12,1,12,0.00
2013-7-16,105,86,71,78,70,65,83,62,40,30.37,30.30,9,0,9,0.00
2013-7-17,106,88,74,78,71,67,81,60,39,30.38,30.23,9,1,9,0.00
2013-7-18,106,87,73,79,71,67,82,61,39,30.25,30.06,7,0,7,0.00
2013-7-19,101,87,77,78,72,68,81,62,46,30.08,29.91,16,2,16,0.00
2013-7-20,86,77,70,73,68,64,81,75,65,29.96,29.88,17,2,17,0.06
2013-7-21,89,79,67,74,68,62,86,70,55,30.01,29.91,8,0,8,0.00
2013-7-22,83,76,69,72,67,64,84,75,65,29.93,29.82,8,0,9,0.06
2013-7-23,97,80,67,77,67,56,85,67,44,29.94,29.80,17,3,19,0.00
2013-7-24,81,68,56,59,54,50,81,61,44,30.05,29.92,12,1,13,0.00
2013-7-25,87,70,55,61,53,48,80,58,38,30.14,30.05,8,0,9,0.00
2013-7-26,93,74,58,65,57,51,79,58,37,30.13,29.98,15,1,15,0.00
2013-7-27,87,73,61,65,58,48,82,61,43,29.98,29.89,16,3,16,0.00
2013-7-28,84,68,53,56,50,44,73,54,36,30.07,29.96,12,2,12,0.00
2013-7-29,90,72,57,60,54,49,75,54,35,30.21,30.07,11,1,11,0.00
2013-7-30,88,70,58,65,58,50,79,65,44,30.23,30.12,8,0,11,0.00
2013-7-31,78,71,66,69,64,59,84,79,72,30.14,29.97,9,1,12,0.10
2013-8-1,95,76,65,70,61,55,86,62,38,30.05,29.98,18,2,22,0.00
2013-8-2,89,73,59,66,59,50,77,63,45,30.03,29.97,58,2,58,0.00
2013-8-3,86,74,66,70,63,53,83,69,52,30.11,29.97,15,1,15,0.57
2013-8-4,89,72,58,62,54,49,74,55,38,30.20,30.11,8,1,12,0.00
2013-8-5,94,74,61,64,57,53,76,58,34,30.15,29.97,10,1,12,0.00
2013-8-6,83,74,68,69,64,58,77,69,64,29.99,29.93,9,0,9,0.00
2013-8-7,89,78,71,74,70,66,86,76,59,29.96,29.89,12,2,16,0.37
2013-8-8,91,78,71,76,70,66,87,78,61,29.99,29.94,8,0,14,0.06
2013-8-9,91,77,69,73,66,61,86,70,50,30.08,29.96,10,1,10,0.10
2013-8-10,98,80,68,71,65,61,80,63,40,30.15,30.08,9,1,10,0.00
2013-8-11,95,79,67,72,64,60,82,63,45,30.15,30.09,8,1,11,0.00
2013-8-12,99,80,67,72,65,60,82,62,40,30.13,29.93,11,1,11,0.00
2013-8-13,86,71,57,66,58,46,82,65,44,30.14,29.91,18,4,18,0.00
2013-8-14,79,64,51,55,48,44,79,58,37,30.22,30.13,14,2,14,0.00
2013-8-15,81,65,52,58,50,44,80,59,39,30.21,30.13,6,0,7,0.00
2013-8-16,78,67,58,57,53,49,78,61,45,30.21,30.14,8,0,8,0.00
2013-8-17,90,73,59,62,56,51,77,58,37,30.23,30.16,8,1,10,0.00
2013-8-18,94,75,60,67,58,54,81,58,37,30.22,30.12,8,0,8,0.00
2013-8-19,96,77,61,68,60,54,81,59,39,30.18,30.09,6,0,6,0.00
2013-8-20,98,80,64,70,63,58,82,59,38,30.20,30.10,6,0,7,0.00
2013-8-21,96,81,68,74,66,61,82,62,48,30.18,30.07,9,0,9,0.00
2013-8-22,96,78,70,73,66,62,78,66,47,30.13,30.04,12,1,13,0.00
2013-8-23,88,76,66,70,64,60,84,67,52,30.18,30.10,8,1,9,0.00
2013-8-24,96,77,59,64,57,53,81,53,31,30.30,30.18,7,0,7,0.00
2013-8-25,98,79,61,67,59,54,80,54,33,30.34,30.23,9,0,9,0.00
2013-8-26,95,80,65,75,66,56,80,62,46,30.27,30.11,10,0,11,0.00
2013-8-27,99,83,72,77,70,67,83,67,47,30.13,30.00,12,1,12,0.00
2013-8-28,100,85,75,76,71,67,77,64,44,30.03,29.95,12,2,12,0.00
2013-8-29,96,81,70,74,67,64,88,66,44,30.09,30.01,6,0,8,0.00
2013-8-30,99,83,68,74,68,62,84,62,41,30.03,29.86,9,1,9,0.00
2013-8-31,100,81,70,75,68,64,82,67,41,29.90,29.80,12,1,12,0.22
2013-9-1,90,77,68,73,68,63,86,74,57,29.85,29.80,13,1,13,0.02
2013-9-2,86,75,67,71,64,57,87,72,50,29.97,29.81,16,2,16,0.00
2013-9-3,81,69,54,58,54,48,79,61,42,30.11,29.97,15,2,15,0.00
2013-9-4,90,72,55,64,56,49,82,59,39,30.19,30.08,9,1,9,0.00
2013-9-5,90,75,62,65,60,54,77,60,42,30.23,30.15,8,0,8,0.00
2013-9-6,91,75,61,61,55,47,65,51,33,30.26,30.12,7,0,7,0.00
2013-9-7,92,77,62,69,61,53,75,58,45,30.12,29.98,11,1,11,0.02
2013-9-8,96,81,69,72,67,63,82,63,44,30.03,29.96,8,0,8,0.02
2013-9-9,95,81,68,73,68,62,82,66,47,30.04,29.96,17,1,17,0.00
2013-9-10,102,86,75,76,70,64,81,60,37,30.15,30.02,10,1,10,0.00
2013-9-11,101,85,74,75,67,62,80,57,37,30.16,30.05,8,0,8,0.00
2013-9-12,82,75,64,70,62,51,82,67,46,30.05,29.91,14,1,14,0.14
2013-9-13,72,62,53,52,46,41,76,58,43,30.14,30.02,12,1,12,0.00
2013-9-14,64,23,53,44,-43,-100,58,21,46,30.22,30.11,0,-596,0,0.00
2013-9-15,80,64,48,55,48,39,76,57,38,30.14,30.03,12,0,12,0.02
2013-9-16,68,62,55,55,52,47,82,71,60,30.31,30.11,5,0,5,0.02
2013-9-17,79,64,50,58,50,44,82,62,41,30.34,30.17,1,0,1,0.00
2013-9-18,86,71,62,64,57,50,74,62,46,30.18,30.05,13,0,13,0.00
2013-9-19,82,73,67,71,66,62,87,78,67,30.11,29.95,17,3,17,0.88
2013-9-20,85,74,67,72,67,62,85,79,63,29.98,29.84,13,2,16,0.59
2013-9-21,77,65,55,62,52,44,85,67,46,29.94,29.81,16,3,16,0.12
2013-9-22,72,59,48,55,46,42,81,64,47,30.04,29.94,8,0,8,0.00
2013-9-23,78,60,46,55,46,41,81,62,43,30.13,30.04,5,0,5,0.00
2013-9-24,79,63,49,58,50,42,78,63,45,30.10,29.93,1,0,1,0.00
2013-9-25,82,67,56,61,52,47,74,60,47,29.97,29.90,6,0,6,0.00
2013-9-26,80,65,52,60,51,44,82,62,44,30.11,29.97,5,0,5,0.00
2013-9-27,85,66,51,61,50,44,79,58,35,30.20,30.10,3,0,3,0.00
2013-9-28,87,68,52,63,53,46,80,61,43,30.18,30.05,14,1,14,0.00
2013-9-29,68,65,62,61,58,54,84,77,64,30.07,30.01,8,0,8,0.47
2013-9-30,80,68,61,64,59,56,86,75,54,30.04,29.96,16,1,16,0.00
2013-10-1,76,67,61,64,60,56,87,79,65,30.09,30.01,12,1,14,0.00
2013-10-2,78,70,63,69,64,59,88,81,70,30.14,30.05,0,0,0,0.00
2013-10-3,85,74,67,70,65,63,87,74,57,30.08,29.99,14,1,17,0.00
2013-10-4,83,74,68,71,66,62,84,77,66,30.09,30.02,16,1,16,0.06
2013-10-5,75,71,66,70,66,62,88,85,80,30.06,29.91,19,2,19,1.90
2013-10-6,66,61,49,63,55,39,89,81,65,29.93,29.77,12,1,13,1.08
2013-10-7,65,54,46,50,44,39,82,71,57,30.16,29.83,9,0,9,0.02
2013-10-8,76,58,46,57,46,41,86,68,47,30.27,30.16,0,0,8,0.00
2013-10-9,75,59,45,56,46,40,83,66,48,30.25,30.16,0,0,0,0.00
2013-10-10,81,61,47,58,48,42,83,66,43,30.21,30.10,0,0,0,0.00
2013-10-11,82,62,47,58,48,41,82,63,38,30.13,30.04,57,0,57,0.00
2013-10-12,82,65,50,62,53,44,82,67,48,30.14,30.05,6,0,6,0.00
2013-10-13,74,63,52,59,47,37,75,56,38,30.37,30.14,9,1,9,0.00
2013-10-14,73,56,44,53,43,37,79,62,44,30.37,30.19,4,0,4,0.00
2013-10-15,66,59,50,60,53,42,86,79,68,30.19,29.92,14,1,14,0.06
2013-10-16,65,58,48,60,48,38,86,69,56,30.00,29.90,8,0,10,0.00
2013-10-17,56,49,43,49,41,36,83,76,68,29.98,29.90,3,0,11,0.08
2013-10-18,69,53,43,53,42,37,84,69,49,30.01,29.93,15,0,17,0.00
2013-10-19,54,48,44,44,38,34,79,69,55,29.98,29.89,6,0,6,0.26
2013-10-20,65,51,42,46,38,33,75,64,47,30.00,29.93,22,2,22,0.00
2013-10-21,66,52,42,49,41,30,75,67,54,30.02,29.91,11,1,11,0.00
2013-10-22,58,43,32,37,31,24,79,64,44,30.05,29.84,9,0,9,0.00
2013-10-23,54,42,34,41,32,29,83,70,51,30.06,29.82,15,1,15,0.24
2013-10-24,43,40,36,36,32,26,77,72,67,30.29,30.05,3,0,3,0.02
2013-10-25,53,40,30,36,27,23,75,60,45,30.44,30.25,8,0,8,0.00
2013-10-26,56,44,36,40,31,24,65,59,54,30.25,29.93,16,3,18,0.00
2013-10-27,61,44,32,40,31,25,76,60,44,30.12,30.05,8,1,8,0.00
2013-10-28,64,46,33,42,32,25,78,60,40,30.31,30.08,2,0,3,0.00
2013-10-29,58,48,38,45,38,30,78,68,60,30.36,30.20,2,0,2,0.00
2013-10-30,64,58,51,60,52,43,88,82,71,30.20,29.96,14,0,14,0.08
2013-10-31,64,61,56,60,57,51,90,87,82,29.97,29.33,22,5,24,1.75
2013-11-1,58,52,46,51,44,40,86,76,65,29.78,29.45,10,1,10,0.02
2013-11-2,60,49,43,45,39,35,82,70,55,30.14,29.77,18,0,19,0.00
2013-11-3,57,45,35,44,35,30,82,68,53,30.33,30.13,2,0,2,0.00
2013-11-4,56,49,41,41,38,33,74,66,56,30.35,30.26,9,0,9,0.00
2013-11-5,58,53,50,46,43,40,77,69,61,30.37,30.14,6,0,6,0.00
2013-11-6,59,54,42,52,46,37,84,75,64,30.14,29.94,17,2,19,0.26
2013-11-7,52,42,34,37,31,26,81,67,48,30.30,30.11,7,0,7,0.00
2013-11-8,54,42,32,38,30,24,77,63,48,30.37,30.16,2,0,6,0.00
2013-11-9,61,51,42,42,35,27,62,55,49,30.17,30.00,17,1,17,0.00
2013-11-10,52,44,35,36,31,26,71,62,51,30.35,30.13,9,1,9,0.00
2013-11-11,51,42,32,38,32,26,80,68,56,30.36,30.09,16,2,16,0.02
2013-11-12,41,32,27,28,23,18,80,67,54,30.63,30.36,8,1,12,0.08
2013-11-13,41,31,22,25,18,15,73,60,46,30.61,30.33,12,2,12,0.00
2013-11-14,52,42,31,28,22,18,62,47,33,30.33,30.10,18,6,18,0.00
2013-11-15,53,47,43,33,27,22,64,46,42,30.12,30.05,14,6,15,0.00
2013-11-16,61,52,44,56,46,33,84,79,64,30.07,29.77,26,7,26,0.00
2013-11-17,66,59,48,60,53,39,88,79,58,29.82,29.42,26,8,29,0.04
2013-11-18,52,45,35,40,33,24,77,65,51,30.22,29.82,20,6,20,0.00
2013-11-19,44,36,30,30,26,22,75,66,57,30.35,30.22,13,4,13,0.00
2013-11-20,47,40,29,34,29,23,77,66,57,30.32,30.17,15,4,16,0.00
2013-11-21,51,48,45,46,40,33,84,73,58,30.26,30.18,10,3,11,0.00
2013-11-22,51,45,34,46,40,28,84,80,75,30.43,30.16,22,6,22,0.00
2013-11-23,38,30,22,28,20,12,78,69,59,30.60,30.39,27,8,27,0.00
2013-11-24,36,24,16,20,12,7,68,60,51,30.68,30.49,14,3,14,0.00
2013-11-25,35,30,22,20,16,11,63,57,50,30.50,30.15,16,6,16,0.00
2013-11-26,40,35,32,27,25,20,72,65,58,30.18,29.97,15,2,19,0.00
2013-11-27,32,26,21,24,16,11,72,66,60,30.28,30.00,18,5,18,0.00
2013-11-28,36,29,22,18,16,11,67,57,47,30.44,30.22,21,4,21,0.00
2013-11-29,41,31,21,26,18,12,70,60,52,30.61,30.44,11,1,11,0.00
2013-11-30,51,40,29,33,24,19,69,55,42,30.47,30.14,17,3,17,0.00
2013-12-1,55,43,35,38,30,22,70,59,51,30.14,29.97,11,2,11,0.00
2013-12-2,49,42,36,38,33,29,81,73,64,29.97,29.78,8,3,10,0.00
2013-12-3,50,44,37,45,40,32,86,83,79,29.84,29.77,11,2,15,0.00
2013-12-4,60,54,46,56,50,41,89,86,82,29.83,29.64,15,5,15,0.00
2013-12-5,60,40,27,54,33,21,83,76,71,30.21,29.73,18,6,18,0.00
2013-12-6,30,28,24,22,20,17,78,74,70,30.43,30.18,14,6,14,0.00
2013-12-7,33,22,14,20,12,7,74,67,55,30.62,30.43,12,4,12,0.00
2013-12-8,30,25,20,26,18,11,82,75,69,30.51,29.98,14,5,16,0.00
2013-12-9,31,27,23,26,20,14,83,75,66,30.23,29.97,20,4,20,0.00
2013-12-10,30,23,15,15,13,6,70,64,53,30.32,30.13,21,3,21,0.00
2013-12-11,35,23,13,24,13,4,74,67,62,30.52,30.29,16,4,20,0.00
2013-12-12,25,16,7,9,3,-2,67,56,46,30.54,30.29,19,5,19,0.00
2013-12-13,38,29,20,27,16,5,77,60,52,30.29,30.11,15,3,25,0.00
2013-12-14,37,33,28,32,28,23,83,81,77,30.12,29.73,12,2,14,0.00
2013-12-15,29,25,22,24,17,13,81,73,65,30.11,29.93,13,2,13,0.00
2013-12-16,30,25,19,25,19,13,81,77,73,30.11,29.99,7,0,7,0.00
2013-12-17,31,27,23,25,21,18,81,78,72,30.14,30.01,12,3,12,0.00
2013-12-18,38,29,19,23,18,12,78,64,51,30.24,29.98,17,5,17,0.00
2013-12-19,50,45,35,42,35,21,74,67,56,30.02,29.88,20,7,20,0.00
2013-12-20,60,55,50,55,50,42,87,82,74,29.88,29.77,21,8,23,0.00
2013-12-21,54,42,38,49,38,33,88,85,82,29.84,29.47,14,3,14,0.00
2013-12-22,44,39,33,41,35,28,89,85,82,30.09,29.38,20,5,20,0.00
2013-12-23,33,28,19,28,21,11,82,76,71,30.42,30.09,16,4,16,0.00
2013-12-24,22,16,8,11,8,1,72,68,61,30.56,30.41,15,3,22,0.00
2013-12-25,31,26,18,23,16,10,73,68,63,30.42,30.16,20,6,20,0.00
2013-12-26,39,33,25,25,23,18,78,66,55,30.36,30.14,17,4,17,0.00
2013-12-27,48,39,30,34,28,22,73,64,56,30.37,30.23,14,5,19,0.00
2013-12-28,54,44,35,38,31,28,76,62,48,30.23,29.97,16,6,20,0.00
2013-12-29,49,39,29,35,28,22,76,66,57,30.08,29.83,22,4,22,0.00
2013-12-30,29,24,22,22,15,12,76,68,62,30.28,30.09,14,3,14,0.00
2013-12-31,33,27,21,20,16,12,70,62,56,30.36,30.16,16,2,16,0.00
2014-1-1,43,30,22,32,22,15,77,71,61,30.25,30.03,13,1,13,0.00
2014-1-2,27,19,11,20,12,2,79,73,65,30.33,29.92,20,7,22,0.00